THOR ABLESTAR DEB, 660

Orbit data source: Space-Track

THOR ABLESTAR DEB, 660 is space debris in LEO originally from a launch on Thu, 29 Jun 1961 UTC launched from the Air Force Eastern Test Range (AFETR). Debris objects in space refer to the collection of defunct objects orbiting the Earth. Examples of debris include non-operational satellites, rocket bodies, and fragments generated from explosions, collisions, or faulty payload assembly.

Loading next visibility...
Identifier
660, 1961-015HM
Orbit
LEO
Country
Flag of USUS
Related business
Manufacturer
Unknown
Mission
Spacecraft
Bus & Motor
Unknown
Mass
Unknown
Launch date (UTC)
1961-06-29 (65 years ago)
Launch vehicle
Unknown
Launch site
Air Force Eastern Test Range (AFETR)
Object type
Payload
Rocket body
Debris
Shape & HBR
Unknown shape, 0.1 m
Radar Cross Section
Medium (>0.1 m² and <1 m²)

Expand to show TLE details & history
Last TLE update: 1 day ago

TLE from 1 day ago
0 THOR ABLESTAR DEB
1 00660U 61015HM  26166.42003987  .00027258  00000-0  12686-2 0  9998
2 00660  66.4857 172.7288 0016695 230.2011 247.4115 15.19738521385160
Epoch: 2026-06-15T10:04Z
TLE epoch observation values (Epoch: 2026-06-15T10:04:51.444Z)
Latitude
54.59581°
Longitude
-99.69482°
Altitude
519.211 km
Speed
7.607 km/s
True Right ascension
21h 00m 54s
True Declination
54° 25' 39"
Sunlit
Object was in daylight at epoch
Visualization orbit readout
Latitude
Unknown
Longitude
Unknown
Altitude
Unknown
Speed
Unknown
Apparent Right ascension
Unknown
Apparent Declination
Unknown
Sunlit
N/A
Visualization observer readout
Local Sidereal Time
21:12:33
Azimuth
Unknown
Elevation
Unknown
Doppler factor
Unknown
Orbital elements
Apogee altitude
516.455 km
Perigee altitude
493.472 km
Semi-major axis
6,883.101 km
Eccentricity
0.00167
Inclination
66.4857°
RAAN
172.7288°
Arg. of periapsis
230.2011°
True anomaly
247.23501°
Mean anomaly
247.4115°
Eccentric anomaly
247.32324°
Mean motion
3.80073 °/min
Orbital period
94.72 mins
BSTAR
0.0012686

Documentation

Showing up to 5 results
|